Location: Belmont
(13.0833°N, 59.6000°W)
Time: 15:01:44
(UTC+00:00)

SAR-Lupe-2 - Pass Details

Date: 17 September 2019
Orbit: 481 x 485 km, 98.2° (Epoch: 07 October)

Event Time Altitude Azimuth Distance (km) Brightness Sun altitude
Rises 22:53:56 0° 10° (N) 2,534 7.2 -14.4°
Reaches altitude 10° 22:55:59 10° 10° (N) 1,654 6.2 -14.9°
Maximum altitude 22:59:32 83° 284° (WNW) 487 3.5 -15.7°
Drops below altitude 10° 23:03:05 10° 194° (SSW) 1,651 6.3 -16.6°
Sets 23:05:09 0° 193° (SSW) 2,538 7.3 -17.1°
